BAW880 EGLL-KJFK

Flight info

Callsign BAW880
Flight time N/A
Altitude 36000
Route ULTIB T420 TNT UL28 PENIL M144 BAGSO DCT RINUS DCT MALOT/M085F380 NATE RIKAL/N0485F380 N572A TOPPS DCT ENE PARCH4
Aircraft A35K/H-SDE2E3GHIJ3J4J5LM1ORWXY/LB1D1

Departure

Time 2026-05-05 10:24
Airport London Heathrow Airport (EGLL)

Arrival

Time N/A
Airport John F. Kennedy International Airport (KJFK)
Time Latitude Longitude Altitude Speed Heading
2026-05-05 10:12 51.46982 -0.48238 92 ft 0 kts 90°
2026-05-05 10:15 51.46982 -0.48270 92 ft 4 kts 90°
2026-05-05 10:15 51.46982 -0.48312 90 ft 4 kts 96°
2026-05-05 10:16 51.46990 -0.48347 90 ft 4 kts 147°
2026-05-05 10:16 51.47008 -0.48356 91 ft 4 kts 180°
2026-05-05 10:16 51.47035 -0.48356 89 ft 3 kts 180°
2026-05-05 10:16 51.47039 -0.48356 89 ft 0 kts 180°
2026-05-05 10:17 51.47038 -0.48356 89 ft 0 kts 180°
2026-05-05 10:18 51.47035 -0.48356 89 ft 0 kts 180°
2026-05-05 10:18 51.47034 -0.48356 90 ft 0 kts 180°
2026-05-05 10:19 51.47027 -0.48356 92 ft 7 kts 180°
2026-05-05 10:19 51.46913 -0.48355 96 ft 20 kts 180°
2026-05-05 10:20 51.46829 -0.48354 92 ft 0 kts 179°
2026-05-05 10:21 51.46804 -0.48354 93 ft 12 kts 179°
2026-05-05 10:22 51.46744 -0.48442 94 ft 18 kts 265°
2026-05-05 10:22 51.46741 -0.48667 92 ft 21 kts 268°
2026-05-05 10:22 51.46636 -0.48752 93 ft 19 kts 189°
2026-05-05 10:22 51.46523 -0.48775 94 ft 17 kts 160°
2026-05-05 10:23 51.46478 -0.48619 95 ft 17 kts 89°
2026-05-05 10:23 51.46479 -0.48344 93 ft 45 kts 89°
2026-05-05 10:23 51.46482 -0.47460 95 ft 112 kts 90°
2026-05-05 10:23 51.46488 -0.45906 99 ft 166 kts 87°
2026-05-05 10:24 51.46495 -0.43904 452 ft 188 kts 88°
2026-05-05 10:24 51.46810 -0.41950 1345 ft 177 kts 53°
2026-05-05 10:24 51.47604 -0.40350 1933 ft 194 kts 46°
2026-05-05 10:24 51.48571 -0.38620 2207 ft 222 kts 46°
2026-05-05 10:25 51.49644 -0.36672 2640 ft 239 kts 47°
2026-05-05 10:25 51.50739 -0.34633 3471 ft 242 kts 49°
2026-05-05 10:25 51.51695 -0.32390 4249 ft 246 kts 64°
2026-05-05 10:25 51.52334 -0.29839 4980 ft 253 kts 70°
2026-05-05 10:26 51.52913 -0.27154 5773 ft 256 kts 70°
2026-05-05 10:26 51.53753 -0.24608 6454 ft 264 kts 51°
2026-05-05 10:26 51.55224 -0.22812 7095 ft 271 kts 22°
2026-05-05 10:26 51.57077 -0.22327 7905 ft 273 kts 356°
2026-05-05 10:27 51.58953 -0.22773 8786 ft 274 kts 349°
2026-05-05 10:27 51.60830 -0.23417 9626 ft 278 kts 346°